Laredo, TX

9:32 PM CDT on September 23, 2017 (GMT -0500)
Laredo International

Weather History for KLRD - December, 2012

Change the Weather History Date:

Friday, December 7, 2012

  Actual Average Record
Temperature  
Mean Temperature 74 °F 59 °F  
Max Temperature 85 °F 69 °F 94 °F (1917)
Min Temperature 62 °F 48 °F 30 °F (1984)
Degree Days  
Heating Degree Days 0 8  
Month to date heating degree days 0 51  
Since 1 July heating degree days 48 166  
Cooling Degree Days 9 1  
Month to date cooling degree days 59 11  
Year to date cooling degree days 5126 4266  
Growing Degree Days 22 (Base 50)    
Moisture  
Dew Point 62 °F    
Average Humidity 73    
Maximum Humidity 97    
Minimum Humidity 43    
Precipitation  
Precipitation 0.00 in 0.02 in 1.78 in (1931)
Month to date precipitation 0.00 0.17  
Year to date precipitation 9.34 19.49  
Sea Level Pressure  
Sea Level Pressure 29.80 in    
Wind  
Wind Speed 9 mph (SE)    
Max Wind Speed 17 mph    
Max Gust Speed 21 mph    
Visibility 9 miles    
Events      
T = Trace of Precipitation, MM = Missing Value Source: NWS Daily Summary

Daily Weather History Graph

Daily Weather History Graph

Search for Another Location

Airport or City:

Trip Planner

Search our weather history database for the weather conditions in past years. The results will help you decide how hot, cold, wet, or windy it might be!

Date:

Astronomy

Dec. 07, 2012 Rise Set
Actual Time 7:15 AM CST 5:43 PM CST
Civil Twilight 6:50 AM CST 6:08 PM CST
Nautical Twilight 6:21 AM CST 6:37 PM CST
Astronomical Twilight 5:52 AM CST 7:06 PM CST
Moon 1:05 AM CST (12/7) 1:15 PM CST (12/7)
Length of Visible Light 11h 18m
Length of Day
10h 27m
Last Quarter, 38% of the Moon is Illuminated
Dec 7
Last Quarter
Dec 13
New
Dec 19
First Quarter
Dec 28
Full
Jan 4
Last Quarter

Hourly Weather History & Observations

Time (CST) Temp. Heat Index Dew Point Humidity Pressure Visibility Wind Dir Wind Speed Gust Speed Precip Events Conditions
12:56 AM 64.9 °F - 57.9 °F 78% 29.81 in 10.0 mi SSE 10.4 mph - N/A   Clear
1:56 AM 63.9 °F - 59.0 °F 84% 29.81 in 10.0 mi SE 8.1 mph - N/A   Clear
2:56 AM 61.9 °F - 59.9 °F 93% 29.80 in 10.0 mi ESE 5.8 mph - N/A   Clear
3:49 AM 62.6 °F - 60.8 °F 94% 29.82 in 7.0 mi ESE 6.9 mph - N/A   Scattered Clouds
3:56 AM 61.9 °F - 61.0 °F 97% 29.79 in 7.0 mi ESE 6.9 mph - N/A   Mostly Cloudy
4:56 AM 65.8 °F - 64.9 °F 97% 29.78 in 6.0 mi SSE 12.7 mph - N/A   Overcast
5:21 AM 66.2 °F - 64.4 °F 94% 29.81 in 7.0 mi SSE 11.5 mph - N/A   Overcast
5:56 AM 66.9 °F - 64.9 °F 93% 29.81 in 8.0 mi SSE 6.9 mph - N/A   Overcast
6:56 AM 68.0 °F - 64.9 °F 90% 29.82 in 9.0 mi South 8.1 mph - N/A   Overcast
7:56 AM 68.0 °F - 64.9 °F 90% 29.83 in 7.0 mi SSE 5.8 mph - N/A   Overcast
8:56 AM 68.9 °F - 63.9 °F 84% 29.84 in 8.0 mi SE 10.4 mph - N/A   Overcast
9:27 AM 69.8 °F - 64.4 °F 83% 29.87 in 9.0 mi SSE 10.4 mph - N/A   Overcast
9:56 AM 70.9 °F - 63.9 °F 78% 29.85 in 9.0 mi SSE 9.2 mph - N/A   Overcast
10:42 AM 73.4 °F - 64.4 °F 73% 29.88 in 10.0 mi South 9.2 mph - N/A   Mostly Cloudy
10:56 AM 73.9 °F - 63.9 °F 71% 29.85 in 10.0 mi South 9.2 mph - N/A   Partly Cloudy
11:56 AM 79.0 °F - 63.0 °F 58% 29.82 in 10.0 mi South 9.2 mph - N/A   Clear
12:56 PM 81.0 °F 81.9 °F 61.9 °F 52% 29.78 in 10.0 mi SE 11.5 mph - N/A   Clear
1:56 PM 82.9 °F 83.2 °F 59.9 °F 46% 29.74 in 10.0 mi SSE 11.5 mph - N/A   Clear
2:56 PM 83.8 °F 83.6 °F 59.0 °F 43% 29.72 in 10.0 mi SSE 10.4 mph - N/A   Clear
3:56 PM 84.9 °F 84.8 °F 59.9 °F 43% 29.71 in 10.0 mi SSE 10.4 mph - N/A   Clear
4:56 PM 83.8 °F 83.8 °F 59.9 °F 44% 29.72 in 10.0 mi SSE 12.7 mph - N/A   Clear
5:56 PM 79.9 °F - 59.9 °F 50% 29.73 in 10.0 mi SE 8.1 mph - N/A   Clear
6:56 PM 77.0 °F - 59.9 °F 55% 29.75 in 10.0 mi ESE 5.8 mph - N/A   Clear
7:56 PM 73.9 °F - 59.9 °F 61% 29.79 in 10.0 mi ENE 5.8 mph - N/A   Clear
8:56 PM 72.0 °F - 61.0 °F 68% 29.80 in 10.0 mi ESE 6.9 mph - N/A   Clear
9:56 PM 72.9 °F - 63.0 °F 71% 29.80 in 10.0 mi SSE 13.8 mph - N/A   Clear
10:56 PM 72.0 °F - 63.9 °F 76% 29.80 in 10.0 mi SE 8.1 mph - N/A   Clear
11:56 PM 70.9 °F - 64.9 °F 81% 29.80 in 10.0 mi SE 8.1 mph - N/A   Clear